Meteo pe oră la Bolshie Steblevichi

Astăzi, 12 Mai, Miercuri

Timp Temperatura Precipitaţii Vânt Presiune Umiditate
00:00 +12°C° 0 mm 3 m/s 751 mmHg 89%
01:00 +12°C° 0 mm 3 m/s 751 mmHg 91%
02:00 +12°C° 0 mm 3 m/s 751 mmHg 93%
03:00 +11°C° 0 mm 3 m/s 751 mmHg 95%
04:00 +11°C° 0 mm 3 m/s 751 mmHg 96%
05:00 +11°C° 0 mm 3 m/s 751 mmHg 97%
06:00 +12°C° 0 mm 4 m/s 751 mmHg 89%
07:00 +13°C° 0 mm 5 m/s 751 mmHg 80%
08:00 +14°C° 0 mm 6 m/s 751 mmHg 72%
09:00 +14°C° 0 mm 6 m/s 751 mmHg 64%
10:00 +15°C° 0 mm 6 m/s 751 mmHg 57%
11:00 +16°C° 0 mm 6 m/s 751 mmHg 49%
12:00 +16°C° 0 mm 6 m/s 751 mmHg 48%
13:00 +17°C° 0 mm 6 m/s 751 mmHg 47%
14:00 +17°C° 0 mm 6 m/s 750 mmHg 45%
15:00 +17°C° 0 mm 6 m/s 750 mmHg 47%
16:00 +17°C° 0 mm 5 m/s 749 mmHg 49%
17:00 +18°C° 0 mm 4 m/s 749 mmHg 51%
18:00 +15°C° 0 mm 4 m/s 749 mmHg 57%
19:00 +14°C° 0 mm 3 m/s 749 mmHg 64%
20:00 +13°C° 0 mm 2 m/s 748 mmHg 70%
21:00 +12°C° 0 mm 2 m/s 748 mmHg 74%
22:00 +10°C° 0 mm 2 m/s 747 mmHg 79%
23:00 +9°C° 0 mm 1 m/s 747 mmHg 84%

Mâine, 13 Mai, Joi

Timp Temperatura Precipitaţii Vânt Presiune Umiditate
00:00 +9°C° 0 mm 1 m/s 747 mmHg 84%
01:00 +9°C° 0 mm 1 m/s 746 mmHg 84%
02:00 +9°C° 0 mm 1 m/s 746 mmHg 84%
03:00 +9°C° 0.2 mm 1 m/s 746 mmHg 86%
04:00 +9°C° 0.2 mm 1 m/s 745 mmHg 87%
05:00 +9°C° 0.2 mm 1 m/s 745 mmHg 89%
06:00 +9°C° 0.2 mm 2 m/s 745 mmHg 88%
07:00 +9°C° 0.2 mm 3 m/s 744 mmHg 87%
08:00 +10°C° 0.2 mm 3 m/s 744 mmHg 85%
09:00 +10°C° 0.3 mm 3 m/s 744 mmHg 82%
10:00 +11°C° 0.3 mm 4 m/s 744 mmHg 78%
11:00 +12°C° 0.3 mm 4 m/s 744 mmHg 74%
12:00 +13°C° 0.2 mm 4 m/s 743 mmHg 69%
13:00 +14°C° 0.2 mm 5 m/s 743 mmHg 64%
14:00 +15°C° 0.2 mm 5 m/s 743 mmHg 59%
15:00 +14°C° 0.1 mm 5 m/s 743 mmHg 62%
16:00 +13°C° 0.1 mm 5 m/s 742 mmHg 65%
17:00 +13°C° 0.1 mm 5 m/s 742 mmHg 69%
18:00 +12°C° 0.1 mm 5 m/s 742 mmHg 74%
19:00 +10°C° 0.1 mm 5 m/s 742 mmHg 80%
20:00 +10°C° 0.1 mm 5 m/s 742 mmHg 85%
21:00 +10°C° 0.1 mm 5 m/s 742 mmHg 87%
22:00 +10°C° 0.1 mm 5 m/s 742 mmHg 88%
23:00 +10°C° 0.1 mm 5 m/s 742 mmHg 89%

Poimâine, 14 Mai, Vineri

Timp Temperatura Precipitaţii Vânt Presiune Umiditate
00:00 +10°C° 0 mm 5 m/s 742 mmHg 90%
01:00 +10°C° 0 mm 5 m/s 742 mmHg 91%
02:00 +9°C° 0 mm 5 m/s 742 mmHg 93%
03:00 +10°C° 0 mm 5 m/s 742 mmHg 93%
04:00 +10°C° 0 mm 5 m/s 742 mmHg 93%
05:00 +11°C° 0 mm 4 m/s 742 mmHg 93%
06:00 +11°C° 0 mm 4 m/s 742 mmHg 91%
07:00 +12°C° 0 mm 4 m/s 742 mmHg 90%
08:00 +12°C° 0 mm 4 m/s 742 mmHg 88%
09:00 +12°C° 0.1 mm 4 m/s 742 mmHg 87%
10:00 +12°C° 0.1 mm 4 m/s 742 mmHg 87%
11:00 +13°C° 0.1 mm 3 m/s 743 mmHg 86%
12:00 +13°C° 0 mm 3 m/s 743 mmHg 84%
13:00 +14°C° 0 mm 3 m/s 743 mmHg 81%
14:00 +16°C° 0 mm 2 m/s 743 mmHg 79%
15:00 +17°C° 0.1 mm 2 m/s 743 mmHg 75%
16:00 +18°C° 0.1 mm 2 m/s 742 mmHg 71%
17:00 +18°C° 0.1 mm 2 m/s 742 mmHg 67%
18:00 +17°C° 0.1 mm 2 m/s 742 mmHg 74%
19:00 +15°C° 0.1 mm 2 m/s 743 mmHg 82%
20:00 +13°C° 0.1 mm 2 m/s 743 mmHg 89%
21:00 +13°C° 0 mm 2 m/s 743 mmHg 91%
22:00 +12°C° 0 mm 2 m/s 743 mmHg 93%
23:00 +10°C° 0 mm 2 m/s 743 mmHg 95%

15 Mai, Sâmbătă

Timp Temperatura Precipitaţii Vânt Presiune Umiditate
00:00 +9°C° 0 mm 2 m/s 743 mmHg 95%
01:00 +9°C° 0 mm 2 m/s 744 mmHg 95%
02:00 +8°C° 0 mm 2 m/s 744 mmHg 96%
03:00 +8°C° 0 mm 2 m/s 744 mmHg 96%
04:00 +8°C° 0 mm 2 m/s 744 mmHg 96%
05:00 +8°C° 0 mm 2 m/s 744 mmHg 97%
06:00 +9°C° 0 mm 3 m/s 744 mmHg 92%
07:00 +10°C° 0 mm 3 m/s 744 mmHg 87%
08:00 +12°C° 0 mm 4 m/s 744 mmHg 82%
09:00 +13°C° 0 mm 4 m/s 745 mmHg 76%
10:00 +14°C° 0 mm 4 m/s 745 mmHg 69%
11:00 +15°C° 0 mm 4 m/s 745 mmHg 62%
12:00 +15°C° 0 mm 4 m/s 745 mmHg 62%
13:00 +17°C° 0 mm 4 m/s 745 mmHg 61%
14:00 +17°C° 0 mm 4 m/s 745 mmHg 60%
15:00 +17°C° 0 mm 4 m/s 745 mmHg 59%
16:00 +18°C° 0 mm 4 m/s 745 mmHg 59%
17:00 +18°C° 0 mm 3 m/s 745 mmHg 58%
18:00 +17°C° 0 mm 3 m/s 745 mmHg 66%
19:00 +15°C° 0 mm 2 m/s 745 mmHg 73%
20:00 +13°C° 0 mm 2 m/s 746 mmHg 81%
21:00 +13°C° 0 mm 1 m/s 746 mmHg 82%
22:00 +12°C° 0 mm 1 m/s 746 mmHg 84%
23:00 +12°C° 0 mm 1 m/s 746 mmHg 85%

16 Mai, Duminică

Timp Temperatura Precipitaţii Vânt Presiune Umiditate
00:00 +11°C° 0 mm 1 m/s 746 mmHg 86%
01:00 +11°C° 0 mm 1 m/s 746 mmHg 87%
02:00 +10°C° 0 mm 2 m/s 746 mmHg 88%
03:00 +10°C° 0 mm 2 m/s 747 mmHg 88%
04:00 +10°C° 0 mm 2 m/s 747 mmHg 87%
05:00 +10°C° 0 mm 2 m/s 747 mmHg 86%
06:00 +13°C° 0 mm 2 m/s 747 mmHg 80%
07:00 +14°C° 0 mm 3 m/s 747 mmHg 73%
08:00 +17°C° 0 mm 3 m/s 747 mmHg 66%
09:00 +18°C° 0 mm 3 m/s 747 mmHg 61%
10:00 +20°C° 0 mm 4 m/s 747 mmHg 56%
11:00 +21°C° 0 mm 4 m/s 747 mmHg 51%
12:00 +22°C° 0 mm 4 m/s 747 mmHg 49%
13:00 +22°C° 0 mm 4 m/s 747 mmHg 47%
14:00 +22°C° 0 mm 5 m/s 746 mmHg 45%
15:00 +22°C° 0 mm 5 m/s 746 mmHg 49%
16:00 +21°C° 0 mm 5 m/s 746 mmHg 53%
17:00 +21°C° 0 mm 4 m/s 746 mmHg 57%
18:00 +19°C° 0 mm 4 m/s 746 mmHg 62%
19:00 +18°C° 0 mm 4 m/s 746 mmHg 68%
20:00 +16°C° 0 mm 3 m/s 746 mmHg 74%
21:00 +16°C° 0 mm 3 m/s 746 mmHg 78%
22:00 +14°C° 0 mm 3 m/s 745 mmHg 82%
23:00 +13°C° 0 mm 3 m/s 745 mmHg 86%

17 Mai, Luni

Timp Temperatura Precipitaţii Vânt Presiune Umiditate
00:00 +13°C° 0 mm 3 m/s 745 mmHg 87%
01:00 +13°C° 0 mm 3 m/s 745 mmHg 87%
02:00 +13°C° 0 mm 3 m/s 744 mmHg 88%
03:00 +13°C° 0.3 mm 3 m/s 743 mmHg 89%
04:00 +13°C° 0.3 mm 4 m/s 743 mmHg 90%
05:00 +13°C° 0.3 mm 4 m/s 742 mmHg 91%
06:00 +14°C° 0.5 mm 4 m/s 742 mmHg 91%
07:00 +14°C° 0.5 mm 4 m/s 741 mmHg 91%
08:00 +15°C° 0.5 mm 4 m/s 741 mmHg 91%
09:00 +16°C° 0.3 mm 3 m/s 741 mmHg 90%
10:00 +17°C° 0.3 mm 3 m/s 741 mmHg 89%
11:00 +18°C° 0.3 mm 3 m/s 741 mmHg 87%
12:00 +19°C° 0.1 mm 2 m/s 741 mmHg 85%
13:00 +19°C° 0.1 mm 2 m/s 741 mmHg 82%
14:00 +20°C° 0.1 mm 2 m/s 741 mmHg 79%
15:00 +19°C° 0.4 mm 2 m/s 741 mmHg 83%
16:00 +18°C° 0.4 mm 2 m/s 741 mmHg 87%
17:00 +18°C° 0.4 mm 2 m/s 741 mmHg 90%
18:00 +17°C° 0.2 mm 2 m/s 741 mmHg 92%
19:00 +16°C° 0.2 mm 2 m/s 742 mmHg 94%
20:00 +15°C° 0.2 mm 2 m/s 742 mmHg 96%
21:00 +15°C° 0.1 mm 2 m/s 742 mmHg 96%
22:00 +14°C° 0.1 mm 3 m/s 741 mmHg 95%
23:00 +14°C° 0.1 mm 3 m/s 741 mmHg 95%
Arată mai mult

Formular de consimțământ

Meteoprog și furnizorii noștri de servicii pot stoca și accesa date personale, precum cookies, identificatori de dispozitiv sau alte tehnologii similare pe dispozitivul dumneavoastră și procesa astfel de date pentru a personaliza conținutul și reclamele, dar și pentru a oferi caracteristici de social media și pentru a analiza traficul.

  • Stocarea și/sau accesarea informațiilor pe dispozitivul dumneavoastră

    Cookies, identificatori de dispozitiv sau alte informații pot fi stocate sau accesate pe dispozitiv în scopurile indicate mai sus.

  • Reclame și conținut personalizat, evaluarea reclamelor și a conținutului, informații despre audiențe și dezvoltarea produselor

    Reclamele și conținutul pot fi personalizate pe baza unui profil. Pot fi adăugate date suplimentare pentru a personaliza mai bine reclamele și conținutul. Performanța reclamelor și conținutului poate fi măsurată. Pot fi obținute informații despre utilizatorii care au văzut reclamele și conținutul. Aceste date pot fi utilizate pentru a dezvolta sau îmbunătăți experiența utilizatorilor, sistemele și software-ul.

Dând clic pe ‘Sunt de acord’, permiteți utilizarea cookie-urilor menționate, a identificatorilor de dispozitiv, balizelor web sau altor tehnologii similare. Setările pot fi modificate din browser-ul dispozitivului dumneavoastră.

În anumite scopuri, interesele legitime pot prima asupra consimțământului. Puteți citi mai multe informații în acest sens în Politica privind Confidențialitatea Datelor și Cookie.